Location: Bushrod
(6.3500°N, 10.7833°W)
Time: 09:46:53
(UTC+00:00)

EXPRESS MD2 - Pass Details

Date: 17 September 2019
Orbit: 264 x 4060 km, 49.9° (Epoch: 15 October)

Event Time Altitude Azimuth Distance (km) Brightness Sun altitude
Rises 19:10:47 0° 313° (NW) 2,941 7.9 -8.0°
Reaches altitude 10° 19:13:46 10° 304° (NW) 1,616 6.7 -8.7°
Maximum altitude 19:16:47 32° 238° (WSW) 602 4.2 -9.5°
Drops below altitude 10° 19:18:53 10° 169° (S) 1,123 4.8 -10.0°
Enters shadow 19:20:21 - 159° (SSE) 1,758 5.7 -10.4°
